| time (UTC) | temp C | wind direction | speed KPH | gust KPH | rain 1hr cm | rain 24hr cm | rain mn cm | humidity % | barometer mb |
| 20260505230851 | 18 | 122 | 4.8 | 4.8 | 0.00 | 0.00 | 0.00 | 66 | 1015.5 |
| 20260505230348 | 18 | 174 | 0.0 | 0.0 | 0.00 | 0.00 | 0.00 | 66 | 1015.5 |
| 20260505225844 | 18 | 141 | 1.6 | 1.6 | 0.00 | 0.00 | 0.00 | 67 | 1015.6 |
| 20260505225342 | 19 | 209 | 3.2 | 3.2 | 0.00 | 0.00 | 0.00 | 66 | 1015.4 |
| 20260505224836 | 20 | 159 | 0.0 | 1.6 | 0.00 | 0.00 | 0.00 | 66 | 1015.4 |
| 20260505224335 | 18 | 163 | 0.0 | 0.0 | 0.00 | 0.00 | 0.00 | 68 | 1015.6 |
| 20260505223832 | 17 | 56 | 3.2 | 3.2 | 0.00 | 0.00 | 0.00 | 70 | 1015.8 |
| 20260505223329 | 17 | 258 | 0.0 | 0.0 | 0.00 | 0.00 | 0.00 | 70 | 1015.8 |
| 20260505222824 | 18 | 129 | 0.0 | 0.0 | 0.00 | 0.00 | 0.00 | 70 | 1015.9 |
| 20260505222320 | 17 | 155 | 0.0 | 0.0 | 0.00 | 0.00 | 0.00 | 74 | 1015.9 |
| 20260505221818 | 17 | 201 | 0.0 | 0.0 | 0.00 | 0.00 | 0.00 | 73 | 1016.0 |
| 20260505221314 | 17 | 168 | 0.0 | 0.0 | 0.00 | 0.00 | 0.00 | 72 | 1015.9 |
| 20260505220812 | 17 | 160 | 0.0 | 0.0 | 0.00 | 0.00 | 0.00 | 73 | 1015.9 |
| 20260505220309 | 17 | 168 | 0.0 | 0.0 | 0.00 | 0.00 | 0.00 | 76 | 1015.8 |
| 20260505215807 | 17 | 147 | 0.0 | 0.0 | 0.00 | 0.00 | 0.00 | 74 | 1016.0 |
| 20260505215305 | 17 | 137 | 0.0 | 0.0 | 0.00 | 0.00 | 0.00 | 73 | 1015.9 |
| 20260505214802 | 17 | 158 | 0.0 | 0.0 | 0.00 | 0.00 | 0.00 | 74 | 1016.0 |
| 20260505214259 | 17 | 127 | 1.6 | 1.6 | 0.00 | 0.00 | 0.00 | 73 | 1015.9 |
| 20260505213756 | 17 | 161 | 0.0 | 0.0 | 0.00 | 0.00 | 0.00 | 75 | 1016.0 |
| 20260505213254 | 16 | 171 | 1.6 | 1.6 | 0.00 | 0.00 | 0.00 | 75 | 1016.0 |
| 20260505212749 | 17 | 151 | 1.6 | 1.6 | 0.00 | 0.00 | 0.00 | 74 | 1016.0 |
| 20260505212247 | 17 | 152 | 1.6 | 1.6 | 0.00 | 0.00 | 0.00 | 73 | 1015.9 |
| 20260505211743 | 17 | 130 | 1.6 | 1.6 | 0.00 | 0.00 | 0.00 | 73 | 1016.1 |
| 20260505211241 | 17 | 169 | 0.0 | 0.0 | 0.00 | 0.00 | 0.00 | 74 | 1015.9 |
| 20260505210737 | 17 | 111 | 0.0 | 1.6 | 0.00 | 0.00 | 0.00 | 73 | 1016.2 |
| 20260505210234 | 17 | 160 | 1.6 | 1.6 | 0.00 | 0.00 | 0.00 | 75 | 1016.2 |
| 20260505205732 | 17 | 154 | 3.2 | 3.2 | 0.00 | 0.00 | 0.00 | 73 | 1016.1 |
| 20260505205230 | 16 | 162 | 0.0 | 0.0 | 0.00 | 0.00 | 0.00 | 76 | 1016.0 |
| 20260505204726 | 16 | 171 | 0.0 | 0.0 | 0.00 | 0.00 | 0.00 | 77 | 1016.3 |
| 20260505204224 | 16 | 159 | 1.6 | 1.6 | 0.00 | 0.00 | 0.00 | 76 | 1016.2 |
| 20260505203721 | 16 | 164 | 0.0 | 0.0 | 0.00 | 0.00 | 0.00 | 76 | 1016.1 |
| 20260505203218 | 16 | 173 | 1.6 | 1.6 | 0.00 | 0.00 | 0.00 | 74 | 1016.4 |
| 20260505202713 | 16 | 160 | 0.0 | 0.0 | 0.00 | 0.00 | 0.00 | 74 | 1016.4 |
| 20260505202210 | 17 | 179 | 0.0 | 0.0 | 0.00 | 0.00 | 0.00 | 74 | 1016.5 |
| 20260505201706 | 16 | 175 | 0.0 | 0.0 | 0.00 | 0.00 | 0.00 | 75 | 1016.4 |
| 20260505201204 | 16 | 162 | 0.0 | 0.0 | 0.00 | 0.00 | 0.00 | 76 | 1016.3 |
| 20260505200702 | 16 | 119 | 1.6 | 1.6 | 0.00 | 0.00 | 0.00 | 74 | 1016.3 |
| 20260505200159 | 16 | 161 | 0.0 | 0.0 | 0.00 | 0.00 | 0.00 | 75 | 1016.3 |
| 20260505195654 | 16 | 82 | 1.6 | 3.2 | 0.00 | 0.00 | 0.00 | 74 | 1016.7 |
| 20260505195152 | 16 | 147 | 0.0 | 0.0 | 0.00 | 0.00 | 0.00 | 77 | 1016.3 |
| 20260505194649 | 16 | 182 | 1.6 | 1.6 | 0.00 | 0.00 | 0.00 | 77 | 1016.5 |
| 20260505194145 | 16 | 156 | 0.0 | 0.0 | 0.00 | 0.00 | 0.00 | 77 | 1016.7 |
| 20260505193642 | 16 | 152 | 1.6 | 1.6 | 0.00 | 0.00 | 0.00 | 77 | 1016.5 |
| 20260505193139 | 15 | 142 | 0.0 | 1.6 | 0.00 | 0.00 | 0.00 | 77 | 1016.2 |
| 20260505192638 | 15 | 150 | 0.0 | 0.0 | 0.00 | 0.00 | 0.00 | 77 | 1016.6 |
| 20260505192134 | 15 | 149 | 0.0 | 0.0 | 0.00 | 0.00 | 0.00 | 78 | 1016.5 |
| 20260505191633 | 15 | 175 | 0.0 | 1.6 | 0.00 | 0.00 | 0.00 | 79 | 1016.5 |
| 20260505191131 | 15 | 291 | 3.2 | 3.2 | 0.00 | 0.00 | 0.00 | 79 | 1016.6 |
| 20260505190626 | 15 | 159 | 0.0 | 0.0 | 0.00 | 0.00 | 0.00 | 79 | 1016.5 |
| 20260505190121 | 15 | 63 | 1.6 | 1.6 | 0.00 | 0.00 | 0.00 | 79 | 1016.6 |
| 20260505185618 | 15 | 135 | 1.6 | 1.6 | 0.00 | 0.00 | 0.00 | 79 | 1016.6 |
| 20260505185114 | 15 | 161 | 0.0 | 1.6 | 0.00 | 0.00 | 0.00 | 78 | 1016.4 |
| 20260505184611 | 15 | 161 | 0.0 | 0.0 | 0.00 | 0.00 | 0.00 | 79 | 1016.6 |
| 20260505184108 | 15 | 159 | 0.0 | 0.0 | 0.00 | 0.00 | 0.00 | 79 | 1016.5 |
| 20260505183605 | 15 | 175 | 1.6 | 1.6 | 0.00 | 0.00 | 0.00 | 79 | 1016.6 |
| 20260505183103 | 14 | 157 | 0.0 | 0.0 | 0.00 | 0.00 | 0.00 | 80 | 1016.4 |
| 20260505182558 | 14 | 151 | 0.0 | 0.0 | 0.00 | 0.00 | 0.00 | 80 | 1016.5 |
| 20260505182055 | 14 | 144 | 3.2 | 3.2 | 0.00 | 0.00 | 0.00 | 80 | 1016.4 |
| 20260505181552 | 15 | 63 | 1.6 | 3.2 | 0.00 | 0.00 | 0.00 | 79 | 1016.5 |
| 20260505181049 | 15 | 161 | 0.0 | 0.0 | 0.00 | 0.00 | 0.00 | 80 | 1016.4 |
| 20260505180545 | 15 | 159 | 0.0 | 1.6 | 0.00 | 0.00 | 0.00 | 78 | 1016.5 |
| 20260505180044 | 15 | 159 | 0.0 | 0.0 | 0.00 | 0.00 | 0.00 | 80 | 1016.4 |
| 20260505175543 | 15 | 153 | 0.0 | 0.0 | 0.00 | 0.00 | 0.00 | 79 | 1016.2 |
| 20260505175041 | 15 | 159 | 0.0 | 0.0 | 0.00 | 0.00 | 0.00 | 79 | 1016.3 |
| 20260505174537 | 15 | 159 | 0.0 | 0.0 | 0.00 | 0.00 | 0.00 | 79 | 1016.3 |
| 20260505174033 | 15 | 162 | 0.0 | 0.0 | 0.00 | 0.00 | 0.00 | 80 | 1016.3 |
| 20260505173530 | 14 | 159 | 0.0 | 1.6 | 0.00 | 0.00 | 0.00 | 81 | 1016.2 |
| 20260505173027 | 13 | 159 | 0.0 | 0.0 | 0.00 | 0.00 | 0.00 | 81 | 1016.2 |
| 20260505172525 | 13 | 155 | 0.0 | 0.0 | 0.00 | 0.00 | 0.00 | 82 | 1016.4 |
| 20260505172021 | 13 | 162 | 1.6 | 1.6 | 0.00 | 0.00 | 0.00 | 82 | 1016.2 |
| 20260505171516 | 13 | 174 | 0.0 | 1.6 | 0.00 | 0.00 | 0.00 | 83 | 1016.1 |
| 20260505171014 | 13 | 122 | 3.2 | 3.2 | 0.00 | 0.00 | 0.00 | 82 | 1016.1 |
| 20260505170510 | 13 | 81 | 1.6 | 1.6 | 0.00 | 0.00 | 0.00 | 82 | 1016.2 |
| 20260505170006 | 13 | 93 | 1.6 | 1.6 | 0.00 | 0.00 | 0.00 | 81 | 1016.1 |
| 20260505165456 | 14 | 142 | 1.6 | 1.6 | 0.00 | 0.00 | 0.00 | 80 | 1016.2 |
| 20260505164952 | 14 | 145 | 0.0 | 1.6 | 0.00 | 0.00 | 0.00 | 81 | 1016.1 |
| 20260505164448 | 14 | 152 | 0.0 | 0.0 | 0.00 | 0.00 | 0.00 | 83 | 1016.2 |
| 20260505163946 | 13 | 113 | 0.0 | 1.6 | 0.00 | 0.00 | 0.00 | 83 | 1015.9 |
| 20260505163444 | 13 | 146 | 0.0 | 0.0 | 0.00 | 0.00 | 0.00 | 83 | 1016.1 |
| 20260505162944 | 13 | 170 | 0.0 | 1.6 | 0.00 | 0.00 | 0.00 | 83 | 1015.9 |
| 20260505162439 | 13 | 63 | 1.6 | 1.6 | 0.00 | 0.00 | 0.00 | 83 | 1015.9 |
| 20260505161936 | 13 | 150 | 0.0 | 0.0 | 0.00 | 0.00 | 0.00 | 84 | 1016.0 |
| 20260505161432 | 12 | 55 | 3.2 | 3.2 | 0.00 | 0.00 | 0.00 | 84 | 1016.1 |
| 20260505160930 | 13 | 45 | 0.0 | 1.6 | 0.00 | 0.00 | 0.00 | 84 | 1016.1 |
| 20260505160428 | 13 | 165 | 0.0 | 0.0 | 0.00 | 0.00 | 0.00 | 85 | 1016.1 |
| 20260505152859 | 12 | 161 | 0.0 | 0.0 | 0.00 | 0.00 | 0.00 | 88 | 1015.9 |
| 20260505152355 | 12 | 154 | 0.0 | 0.0 | 0.00 | 0.00 | 0.00 | 87 | 1015.9 |
| 20260505151855 | 12 | 151 | 0.0 | 0.0 | 0.00 | 0.00 | 0.00 | 87 | 1015.9 |
| 20260505151352 | 12 | 115 | 1.6 | 1.6 | 0.00 | 0.00 | 0.00 | 88 | 1015.9 |
| 20260505150849 | 12 | 143 | 3.2 | 3.2 | 0.00 | 0.00 | 0.00 | 89 | 1016.1 |
| 20260505150347 | 12 | 160 | 0.0 | 0.0 | 0.00 | 0.00 | 0.00 | 90 | 1015.9 |
| 20260505140317 | 11 | 161 | 0.0 | 0.0 | 0.00 | 0.00 | 0.00 | 92 | 1015.4 |
| 20260505130240 | 11 | 153 | 1.6 | 1.6 | 0.00 | 0.00 | 0.00 | 91 | 1015.2 |
| 20260505124731 | 11 | 165 | 0.0 | 0.0 | 0.00 | 0.00 | 0.00 | 91 | 1014.9 |
| 20260505124228 | 11 | 161 | 0.0 | 0.0 | 0.00 | 0.00 | 0.00 | 91 | 1014.9 |
| 20260505123723 | 11 | 161 | 0.0 | 0.0 | 0.00 | 0.00 | 0.00 | 90 | 1014.7 |
| 20260505123220 | 11 | 160 | 0.0 | 0.0 | 0.00 | 0.00 | 0.00 | 90 | 1015.1 |
| 20260505122716 | 11 | 157 | 0.0 | 0.0 | 0.00 | 0.00 | 0.00 | 90 | 1014.8 |
| 20260505122214 | 11 | 161 | 0.0 | 0.0 | 0.00 | 0.00 | 0.00 | 90 | 1014.9 |
| 20260505121710 | 11 | 150 | 3.2 | 3.2 | 0.00 | 0.00 | 0.00 | 90 | 1014.7 |
| 20260505121207 | 11 | 161 | 0.0 | 0.0 | 0.00 | 0.00 | 0.00 | 90 | 1014.7 |
| 20260505120703 | 11 | 160 | 0.0 | 0.0 | 0.00 | 0.00 | 0.00 | 90 | 1014.8 |
| 20260505120159 | 11 | 151 | 3.2 | 4.8 | 0.00 | 0.00 | 0.00 | 91 | 1014.8 |
| 20260505115652 | 11 | 167 | 0.0 | 0.0 | 0.00 | 0.00 | 0.00 | 91 | 1014.9 |
| 20260505115151 | 11 | 149 | 1.6 | 3.2 | 0.00 | 0.00 | 0.00 | 91 | 1014.9 |
| 20260505114648 | 11 | 158 | 0.0 | 0.0 | 0.00 | 0.00 | 0.00 | 91 | 1014.7 |
| 20260505114144 | 11 | 158 | 0.0 | 0.0 | 0.00 | 0.00 | 0.00 | 91 | 1014.9 |
| 20260505113640 | 11 | 173 | 1.6 | 1.6 | 0.00 | 0.00 | 0.00 | 91 | 1014.8 |
| 20260505113137 | 11 | 127 | 4.8 | 4.8 | 0.00 | 0.00 | 0.00 | 91 | 1014.7 |
| 20260505112633 | 11 | 139 | 0.0 | 0.0 | 0.00 | 0.00 | 0.00 | 91 | 1014.7 |
| 20260505112132 | 11 | 165 | 0.0 | 0.0 | 0.00 | 0.00 | 0.00 | 91 | 1014.6 |
| 20260505111631 | 11 | 147 | 0.0 | 1.6 | 0.00 | 0.00 | 0.00 | 91 | 1015.0 |
| 20260505111127 | 11 | 164 | 0.0 | 0.0 | 0.00 | 0.00 | 0.00 | 91 | 1014.5 |
| 20260505110623 | 11 | 153 | 6.4 | 8.0 | 0.00 | 0.00 | 0.00 | 90 | 1014.6 |
| 20260505110121 | 11 | 136 | 0.0 | 3.2 | 0.00 | 0.00 | 0.00 | 90 | 1014.5 |
| 20260505102057 | 11 | 152 | 1.6 | 1.6 | 0.00 | 0.00 | 0.00 | 90 | 1014.5 |
| 20260505101555 | 11 | 163 | 0.0 | 1.6 | 0.00 | 0.00 | 0.00 | 90 | 1014.4 |
| 20260505101051 | 11 | 154 | 1.6 | 3.2 | 0.00 | 0.00 | 0.00 | 90 | 1014.2 |
| 20260505100548 | 11 | 154 | 0.0 | 0.0 | 0.00 | 0.00 | 0.00 | 90 | 1014.2 |
| 20260505100044 | 11 | 153 | 1.6 | 1.6 | 0.00 | 0.00 | 0.00 | 90 | 1014.2 |
| 20260505095540 | 11 | 157 | 0.0 | 0.0 | 0.00 | 0.00 | 0.00 | 90 | 1014.3 |
| 20260505095037 | 11 | 159 | 0.0 | 0.0 | 0.00 | 0.00 | 0.00 | 90 | 1014.5 |
| 20260505094534 | 11 | 152 | 1.6 | 1.6 | 0.00 | 0.00 | 0.00 | 90 | 1014.4 |
| 20260505094030 | 11 | 157 | 0.0 | 0.0 | 0.00 | 0.00 | 0.00 | 90 | 1014.1 |
| 20260505093527 | 11 | 148 | 3.2 | 3.2 | 0.00 | 0.00 | 0.00 | 90 | 1014.3 |
| 20260505093024 | 11 | 146 | 1.6 | 1.6 | 0.00 | 0.00 | 0.00 | 90 | 1014.1 |
| 20260505092521 | 11 | 159 | 0.0 | 0.0 | 0.00 | 0.00 | 0.00 | 91 | 1014.1 |
| 20260505092020 | 11 | 151 | 0.0 | 1.6 | 0.00 | 0.00 | 0.00 | 91 | 1014.0 |
| 20260505091516 | 11 | 160 | 0.0 | 0.0 | 0.00 | 0.00 | 0.00 | 91 | 1014.0 |
| 20260505091014 | 11 | 168 | 0.0 | 0.0 | 0.00 | 0.00 | 0.00 | 90 | 1014.0 |
| 20260505090512 | 11 | 160 | 0.0 | 0.0 | 0.00 | 0.00 | 0.00 | 90 | 1014.3 |
| 20260505090009 | 11 | 158 | 0.0 | 0.0 | 0.00 | 0.00 | 0.00 | 91 | 1014.0 |
| 20260505085507 | 11 | 164 | 1.6 | 1.6 | 0.00 | 0.00 | 0.00 | 91 | 1014.0 |
| 20260505085005 | 11 | 158 | 0.0 | 0.0 | 0.00 | 0.00 | 0.00 | 91 | 1014.1 |
| 20260505084503 | 11 | 159 | 0.0 | 0.0 | 0.00 | 0.00 | 0.00 | 92 | 1014.0 |
| 20260505084001 | 11 | 157 | 0.0 | 0.0 | 0.00 | 0.00 | 0.00 | 92 | 1014.1 |
| 20260505083458 | 11 | 160 | 0.0 | 0.0 | 0.00 | 0.00 | 0.00 | 92 | 1014.1 |
| 20260505082954 | 11 | 159 | 0.0 | 0.0 | 0.00 | 0.00 | 0.00 | 92 | 1013.7 |
| 20260505082450 | 11 | 158 | 0.0 | 0.0 | 0.00 | 0.00 | 0.00 | 92 | 1013.8 |
| 20260505081947 | 11 | 159 | 0.0 | 0.0 | 0.00 | 0.00 | 0.00 | 92 | 1013.9 |
| 20260505081444 | 11 | 159 | 0.0 | 0.0 | 0.00 | 0.00 | 0.00 | 91 | 1013.7 |
| 20260505080940 | 11 | 139 | 1.6 | 3.2 | 0.00 | 0.00 | 0.00 | 91 | 1013.9 |
| 20260505080436 | 11 | 151 | 0.0 | 0.0 | 0.00 | 0.00 | 0.00 | 91 | 1013.8 |
| 20260505075932 | 11 | 160 | 0.0 | 0.0 | 0.00 | 0.00 | 0.00 | 91 | 1013.8 |
| 20260505075429 | 11 | 154 | 1.6 | 1.6 | 0.00 | 0.00 | 0.00 | 91 | 1013.8 |
| 20260505074927 | 11 | 151 | 0.0 | 1.6 | 0.00 | 0.00 | 0.00 | 92 | 1013.9 |
| 20260505074424 | 11 | 152 | 0.0 | 0.0 | 0.00 | 0.00 | 0.00 | 91 | 1013.8 |
| 20260505073921 | 11 | 158 | 0.0 | 0.0 | 0.00 | 0.00 | 0.00 | 91 | 1013.7 |
| 20260505073419 | 11 | 151 | 0.0 | 0.0 | 0.00 | 0.00 | 0.00 | 91 | 1013.8 |
| 20260505072916 | 11 | 158 | 0.0 | 0.0 | 0.00 | 0.00 | 0.00 | 91 | 1013.6 |
| 20260505072411 | 11 | 157 | 0.0 | 0.0 | 0.00 | 0.00 | 0.00 | 90 | 1013.7 |
| 20260505071908 | 11 | 159 | 0.0 | 0.0 | 0.00 | 0.00 | 0.00 | 90 | 1013.4 |
| 20260505071404 | 11 | 158 | 0.0 | 0.0 | 0.00 | 0.00 | 0.00 | 90 | 1013.6 |
| 20260505070902 | 11 | 157 | 0.0 | 0.0 | 0.00 | 0.00 | 0.00 | 90 | 1013.6 |
| 20260505070358 | 11 | 156 | 1.6 | 1.6 | 0.00 | 0.00 | 0.00 | 90 | 1013.3 |
| 20260505065854 | 11 | 158 | 0.0 | 0.0 | 0.00 | 0.00 | 0.00 | 90 | 1013.4 |
| 20260505065351 | 11 | 155 | 0.0 | 1.6 | 0.00 | 0.00 | 0.00 | 90 | 1013.4 |
| 20260505064848 | 11 | 158 | 0.0 | 0.0 | 0.00 | 0.00 | 0.00 | 89 | 1013.3 |
| 20260505064345 | 11 | 46 | 1.6 | 3.2 | 0.00 | 0.00 | 0.00 | 89 | 1013.4 |
| 20260505063843 | 11 | 151 | 0.0 | 0.0 | 0.00 | 0.00 | 0.00 | 89 | 1013.3 |
| 20260505063338 | 11 | 157 | 0.0 | 0.0 | 0.00 | 0.00 | 0.00 | 88 | 1013.3 |
| 20260505062835 | 11 | 159 | 0.0 | 0.0 | 0.00 | 0.00 | 0.00 | 88 | 1013.2 |
| 20260505062333 | 11 | 157 | 0.0 | 0.0 | 0.00 | 0.00 | 0.00 | 88 | 1013.4 |
| 20260505061830 | 11 | 151 | 0.0 | 0.0 | 0.00 | 0.00 | 0.00 | 88 | 1013.1 |
| 20260505061328 | 12 | 157 | 1.6 | 1.6 | 0.00 | 0.00 | 0.00 | 87 | 1013.2 |
| 20260505060825 | 12 | 161 | 0.0 | 0.0 | 0.00 | 0.00 | 0.00 | 87 | 1013.3 |
| 20260505060322 | 12 | 162 | 0.0 | 0.0 | 0.00 | 0.00 | 0.00 | 87 | 1013.3 |
| 20260505055818 | 12 | 149 | 1.6 | 3.2 | 0.00 | 0.00 | 0.00 | 87 | 1013.2 |
| 20260505055313 | 12 | 170 | 0.0 | 0.0 | 0.00 | 0.00 | 0.00 | 87 | 1013.2 |
| 20260505054812 | 12 | 168 | 0.0 | 0.0 | 0.00 | 0.00 | 0.00 | 87 | 1013.1 |
| 20260505054308 | 12 | 154 | 0.0 | 0.0 | 0.00 | 0.00 | 0.00 | 86 | 1013.2 |
| 20260505053807 | 12 | 167 | 0.0 | 0.0 | 0.00 | 0.00 | 0.00 | 86 | 1013.3 |
| 20260505053303 | 12 | 156 | 1.6 | 1.6 | 0.00 | 0.00 | 0.00 | 86 | 1012.9 |
| 20260505052800 | 12 | 124 | 1.6 | 3.2 | 0.00 | 0.00 | 0.00 | 86 | 1013.2 |
| 20260505052257 | 12 | 153 | 0.0 | 0.0 | 0.00 | 0.00 | 0.00 | 86 | 1013.2 |
| 20260505051754 | 12 | 159 | 0.0 | 0.0 | 0.00 | 0.00 | 0.00 | 86 | 1013.1 |
| 20260505051252 | 12 | 160 | 0.0 | 0.0 | 0.00 | 0.00 | 0.00 | 86 | 1013.0 |
| 20260505050750 | 12 | 155 | 0.0 | 0.0 | 0.00 | 0.00 | 0.00 | 85 | 1013.0 |
| 20260505050248 | 12 | 151 | 0.0 | 0.0 | 0.00 | 0.00 | 0.00 | 85 | 1012.9 |
| 20260505041718 | 13 | 161 | 0.0 | 0.0 | 0.00 | 0.00 | 0.00 | 83 | 1012.4 |
| 20260505041215 | 13 | 162 | 0.0 | 0.0 | 0.00 | 0.00 | 0.00 | 83 | 1011.9 |
| 20260505040712 | 13 | 167 | 0.0 | 0.0 | 0.00 | 0.00 | 0.00 | 83 | 1011.8 |
| 20260505040209 | 13 | 142 | 3.2 | 3.2 | 0.00 | 0.00 | 0.00 | 83 | 1012.1 |
| 20260505035706 | 14 | 158 | 0.0 | 0.0 | 0.00 | 0.00 | 0.00 | 83 | 1011.8 |
| 20260505035202 | 14 | 162 | 0.0 | 0.0 | 0.00 | 0.00 | 0.00 | 82 | 1012.1 |
| 20260505034658 | 14 | 163 | 0.0 | 0.0 | 0.00 | 0.00 | 0.00 | 82 | 1011.8 |
| 20260505034156 | 15 | 141 | 0.0 | 0.0 | 0.00 | 0.00 | 0.00 | 82 | 1011.9 |
| 20260505033652 | 15 | 165 | 0.0 | 0.0 | 0.00 | 0.00 | 0.00 | 81 | 1011.5 |
| 20260505033150 | 15 | 163 | 0.0 | 0.0 | 0.00 | 0.00 | 0.00 | 81 | 1011.5 |
| 20260505032648 | 15 | 161 | 0.0 | 0.0 | 0.00 | 0.00 | 0.00 | 80 | 1011.3 |
| 20260505032144 | 15 | 157 | 0.0 | 0.0 | 0.00 | 0.00 | 0.00 | 80 | 1011.4 |
| 20260505031642 | 15 | 149 | 0.0 | 1.6 | 0.00 | 0.00 | 0.00 | 79 | 1011.2 |
| 20260505031138 | 16 | 161 | 0.0 | 0.0 | 0.00 | 0.00 | 0.00 | 79 | 1011.5 |
| 20260505030635 | 16 | 177 | 0.0 | 1.6 | 0.00 | 0.00 | 0.00 | 79 | 1011.4 |
| 20260505030130 | 16 | 180 | 1.6 | 1.6 | 0.00 | 0.00 | 0.00 | 78 | 1011.0 |
| 20260505025627 | 16 | 161 | 0.0 | 0.0 | 0.00 | 0.00 | 0.00 | 78 | 1011.1 |
| 20260505025126 | 16 | 162 | 0.0 | 0.0 | 0.00 | 0.00 | 0.00 | 77 | 1011.1 |
| 20260505024622 | 16 | 161 | 0.0 | 0.0 | 0.00 | 0.00 | 0.00 | 76 | 1010.8 |
| 20260505024120 | 17 | 158 | 0.0 | 0.0 | 0.00 | 0.00 | 0.00 | 75 | 1010.9 |
| 20260505023617 | 17 | 166 | 0.0 | 0.0 | 0.00 | 0.00 | 0.00 | 75 | 1010.9 |
| 20260505023114 | 17 | 153 | 0.0 | 0.0 | 0.00 | 0.00 | 0.00 | 74 | 1010.6 |
| 20260505022612 | 17 | 160 | 0.0 | 0.0 | 0.00 | 0.00 | 0.00 | 73 | 1010.8 |
| 20260505022108 | 18 | 172 | 0.0 | 1.6 | 0.00 | 0.00 | 0.00 | 73 | 1010.7 |
| 20260505021605 | 18 | 148 | 0.0 | 0.0 | 0.00 | 0.00 | 0.00 | 71 | 1010.7 |
| 20260505021102 | 18 | 150 | 0.0 | 0.0 | 0.00 | 0.00 | 0.00 | 72 | 1010.3 |
| 20260505020602 | 19 | 163 | 0.0 | 0.0 | 0.00 | 0.00 | 0.00 | 71 | 1010.5 |
| 20260505020059 | 19 | 169 | 1.6 | 1.6 | 0.00 | 0.00 | 0.00 | 71 | 1010.6 |
| 20260505015556 | 19 | 165 | 0.0 | 0.0 | 0.00 | 0.00 | 0.00 | 71 | 1010.5 |
| 20260505015053 | 20 | 129 | 6.4 | 9.7 | 0.00 | 0.00 | 0.00 | 70 | 1010.5 |
| 20260505014549 | 20 | 157 | 0.0 | 0.0 | 0.00 | 0.00 | 0.00 | 71 | 1010.5 |
| 20260505014047 | 20 | 173 | 1.6 | 1.6 | 0.00 | 0.00 | 0.00 | 70 | 1010.5 |
| 20260505013544 | 20 | 148 | 1.6 | 3.2 | 0.00 | 0.00 | 0.00 | 69 | 1010.5 |
| 20260505013041 | 20 | 136 | 3.2 | 4.8 | 0.00 | 0.00 | 0.00 | 70 | 1010.5 |
| 20260505012539 | 20 | 161 | 0.0 | 0.0 | 0.00 | 0.00 | 0.00 | 70 | 1010.3 |
| 20260505012036 | 20 | 164 | 0.0 | 0.0 | 0.00 | 0.00 | 0.00 | 69 | 1010.8 |
| 20260505011531 | 20 | 184 | 0.0 | 1.6 | 0.00 | 0.00 | 0.00 | 69 | 1010.5 |
| 20260505011029 | 21 | 139 | 1.6 | 4.8 | 0.00 | 0.00 | 0.00 | 69 | 1010.3 |
| 20260505010524 | 21 | 164 | 0.0 | 0.0 | 0.00 | 0.00 | 0.00 | 69 | 1010.6 |
| 20260505010021 | 21 | 166 | 0.0 | 0.0 | 0.00 | 0.00 | 0.00 | 68 | 1010.9 |
| 20260505005517 | 21 | 147 | 0.0 | 0.0 | 0.00 | 0.00 | 0.00 | 68 | 1010.6 |
| 20260505005015 | 21 | 121 | 0.0 | 1.6 | 0.00 | 0.00 | 0.00 | 68 | 1010.7 |
| 20260505004512 | 21 | 159 | 0.0 | 0.0 | 0.00 | 0.00 | 0.00 | 68 | 1010.6 |
| 20260505004008 | 21 | 157 | 0.0 | 0.0 | 0.00 | 0.00 | 0.00 | 67 | 1010.6 |
| 20260505003506 | 21 | 147 | 1.6 | 3.2 | 0.00 | 0.00 | 0.00 | 66 | 1010.6 |
| 20260505003002 | 21 | 151 | 1.6 | 1.6 | 0.00 | 0.00 | 0.00 | 67 | 1010.5 |
| 20260505002458 | 21 | 167 | 1.6 | 1.6 | 0.00 | 0.00 | 0.00 | 67 | 1010.6 |
| 20260505001956 | 21 | 154 | 1.6 | 3.2 | 0.00 | 0.00 | 0.00 | 67 | 1010.7 |
| 20260505001454 | 21 | 161 | 1.6 | 1.6 | 0.00 | 0.00 | 0.00 | 68 | 1010.6 |
| 20260505000950 | 21 | 137 | 6.4 | 8.0 | 0.00 | 0.00 | 0.00 | 66 | 1010.8 |
| 20260505000448 | 21 | 188 | 1.6 | 3.2 | 0.00 | 0.00 | 0.00 | 65 | 1010.8 |
| 20260504235945 | 21 | 115 | 1.6 | 1.6 | 0.00 | 0.00 | 0.00 | 68 | 1010.9 |
| 20260504235442 | 21 | 137 | 1.6 | 1.6 | 0.00 | 0.00 | 0.00 | 68 | 1010.8 |
| 20260504234939 | 21 | 137 | 1.6 | 1.6 | 0.00 | 0.00 | 0.00 | 68 | 1010.9 |
| 20260504234436 | 21 | 136 | 6.4 | 8.0 | 0.00 | 0.00 | 0.00 | 65 | 1010.9 |
| 20260504233932 | 21 | 136 | 6.4 | 8.0 | 0.00 | 0.00 | 0.00 | 65 | 1011.0 |
| 20260504233428 | 21 | 167 | 1.6 | 1.6 | 0.00 | 0.00 | 0.00 | 68 | 1011.0 |
| 20260504232925 | 21 | 162 | 0.0 | 0.0 | 0.00 | 0.00 | 0.00 | 67 | 1011.3 |
| 20260504232422 | 22 | 164 | 1.6 | 1.6 | 0.00 | 0.00 | 0.00 | 66 | 1011.2 |
| 20260504231919 | 22 | 164 | 1.6 | 1.6 | 0.00 | 0.00 | 0.00 | 66 | 1011.3 |
| 20260504231415 | 21 | 167 | 0.0 | 0.0 | 0.00 | 0.00 | 0.00 | 66 | 1011.1 |